Flag for Germany Weather past 2 weeks in Wiesbaden, Hesse, Germany

Now
70 °F

Overcast.


Feels Like: 70 °F
Forecast: 55 / 71 °F
Wind: 8 mph from West

Location: Wiesbaden Airport

Current Time: Sep 30, 2014 at 5:58:11 PM

Latest Report: Sep 30, 2014 at 4:58 PM


Visibility: N/A

Pressure: 30.27 "Hg

Humidity: 69%

Dew point: 59 °F

Location of WiesbadenLocation

Historic Weather in Wiesbaden — Graph

°F

Wiesbaden temperature yesterday

Maximum temperature yesterday: 73 °F (at 3:58 PM)
Minimum temperature yesterday: 52 °F (at 5:58 AM)
Average temperature yesterday: 63 °F

Past Weeks' High & Low Weather Summary

 TemperatureHumidityPressure
High77 °F (Sep 17, 3:58 PM)100% (Sep 19, 6:58 AM)30.39 "Hg (Sep 19, 6:58 AM)
Low43 °F (Sep 23, 5:58 AM)49% (Sep 17, 4:58 PM)29.86 "Hg (Sep 18, 2:58 AM)
Average61 °F82%30.09 "Hg
* Reported Sep 15 4:58 PM — Sep 30 4:58 PM, Wiesbaden, Weather by CustomWeather, © 2014

Note: Actual official high and low records may vary slightly from our data, if they occured in-between our weather recording intervals... More about our weather records

Advertising

Wiesbaden weather history for previous 24 hours

 ConditionsComfort  
Time TempWeatherWind HumidityBarometerVisibility
4:58 PM
Sep 30
70 °FOvercast.8 mph69%30.27 "HgN/A
3:58 PM69 °FBroken clouds.6 mph71%30.27 "HgN/A
2:58 PM68 °FPartly sunny.5 mph73%30.29 "HgN/A
1:59 PM68 °FPartly sunny.5 mph73%30.29 "HgN/A
1:58 PM68 °FScattered clouds.5 mph73%30.29 "HgN/A
12:58 PM67 °FScattered clouds.No wind72%30.29 "HgN/A
11:58 AM67 °FPartly sunny.3 mph73%30.29 "HgN/A
10:58 AM65 °FScattered clouds.No wind83%30.29 "HgN/A
9:58 AM63 °FOvercast.1 mph88%30.29 "HgN/A
8:58 AM61 °FPartly sunny.3 mph92%30.28 "HgN/A
7:58 AM58 °FMostly cloudy.2 mph96%30.27 "HgN/A
6:58 AM60 °FMostly cloudy.2 mph94%30.24 "HgN/A
5:58 AM61 °FMostly cloudy.5 mph94%30.24 "HgN/A
4:58 AM61 °FOvercast.6 mph94%30.24 "HgN/A
3:59 AM63 °FOvercast.6 mph94%30.24 "HgN/A
3:58 AM63 °FLight rain. Mostly cloudy.5 mph94%30.23 "HgN/A
2:58 AM63 °FMostly cloudy.No wind93%30.24 "HgN/A
1:58 AM63 °FOvercast.1 mph94%30.24 "HgN/A
12:58 AM63 °FOvercast.No wind94%30.25 "HgN/A
11:58 PM
Sep 29
64 °FOvercast.2 mph88%30.25 "HgN/A
10:58 PM64 °FMostly cloudy.6 mph88%30.25 "HgN/A
9:58 PM65 °FPassing clouds.5 mph84%30.25 "HgN/A
9:01 PM66 °FDrizzle. Overcast.3 mph83%30.25 "HgN/A
8:51 PM66 °FPassing clouds.6 mph83%30.25 "HgN/A
7:58 PM69 °FDrizzle. Mostly cloudy.5 mph75%30.23 "HgN/A
6:59 PM70 °FScattered clouds.2 mph73%30.23 "HgN/A
5:58 PM72 °FBroken clouds.3 mph69%30.23 "HgN/A
Weather by CustomWeather, © 2014

See weather overviewHow to use our weather pages